Regional Weather Roundup
Issued by NWS Grand Forks, ND

Home | Current Version | Previous Version | Graphics & Text | Print | Product List | Glossary On
Versions: 1 2 3 4 5 6 7 8 9 10 11 12 13 14 15 16 17 18 19 20 21 22 23 24 25 26 27 28 29 30 31 32 33 34 35 36 37 38 39 40 41 42 43 44 45 46 47 48 49 50
000
ASUS43 KFGF 010631
RWRFGF
PRAIRIE TO PINES  WEATHER ROUNDUP
NATIONAL WEATHER SERVICE EASTERN NORTH DAKOTA/GRAND FORKS ND
100 AM CDT SAT AUG 01 2015

 **SATELLITE DATA USED TO AUGMENT SKY COVER AT AUTOMATED STATIONS**
 *****  WEATHER ACROSS EASTERN NORTH DAKOTA  *****

CITY           SKY/WX    TMP DP  RH WIND       PRES   REMARKS
GRAND FORKS    CLEAR     57  52  83 W5        29.97S
6HR MIN TEMP:  56; 6HR MAX TEMP:  80;

GRAND FRKS AFB CLEAR     56  52  85 W5        29.98S
GRAND FRKS NWS   N/A     59 N/A N/A NW1         N/A
DEVILS LAKE    CLEAR     63  52  67 CALM      30.00S
6HR MIN TEMP:  61; 6HR MAX TEMP:  79;

FARGO          CLEAR     62  56  80 SW5       30.00R
WAHPETON ARPT  CLEAR     61  55  82 S5        30.01R
$$

 ***** WEATHER ACROSS CENTRAL AND WESTERN NORTH DAKOTA  *****

CITY           SKY/WX    TMP DP  RH WIND       PRES   REMARKS
BISMARCK       MOCLDY    63  58  83 NE3       30.04S
6HR MIN TEMP:  60; 6HR MAX TEMP:  86;

MINOT          CLEAR     62  52  69 SW6       30.01S
6HR MIN TEMP:  60; 6HR MAX TEMP:  81;

JAMESTOWN      CLEAR     60  56  86 CALM      30.02S
6HR MIN TEMP:  60; 6HR MAX TEMP:  81;

MINOT AFB      CLEAR     55  53  92 W5        30.01S
GARRISON         N/A     59  54  83 CALM      30.03F
WILLISTON      CLEAR     66  52  60 N6        30.03S
6HR MIN TEMP:  66; 6HR MAX TEMP:  89;

DICKINSON      CLEAR     59  50  72 E9        30.03S
6HR MIN TEMP:  59; 6HR MAX TEMP:  86;

HETTINGER      CLEAR     66  47  50 SE8       30.06F
6HR MIN TEMP:  65; 6HR MAX TEMP:  89;

$$

 *****  OTHER AIRPORT OBSERVATIONS IN OUR AREA  *****

CITY           SKY/WX    TMP DP  RH WIND       PRES   REMARKS
WALHALLA       FAIR      64  52  63 MISG      29.96F
GRAFTON AIRPOR FAIR      57  55  94 SW7       29.97S
VALLEY CITY AR FAIR      57  57 100 SW3       30.02S
CANDO          FAIR      55  54  94 CALM      30.01S
CAVALIER APRT  FAIR      59  54  82 W7        29.96S
GWINNER          N/A     63  59  88 N5        30.02F
SHEYENNE NWR     N/A     59  57  94 CALM      29.95
ROLLA          FAIR      54  50  87 NW6       30.03S
 ***** THE ABOVE OBSERVATIONS ARE NON NWS ARE NOT QUALITY
       CONTROLLED AND MAY MIS-REPORT RAIN FOR SNOW...
$$

  *****  WEATHER ACROSS NORTHERN MINNESOTA  *****

CITY           SKY/WX    TMP DP  RH WIND       PRES   REMARKS
FLAG ISLAND    CLEAR     63  54  72 W12       29.91S
WARROAD        CLEAR     61  55  82 W7        29.94S
ROSEAU         CLEAR     55  50  82 CALM      29.95R
HALLOCK        CLEAR     55  52  88 CALM      29.95S
THF RVR FALLS  CLEAR     59  52  77 CALM      29.98S
6HR MIN TEMP:  57; 6HR MAX TEMP:  75;

BAUDETTE       CLEAR     56  49  77 W5        29.93F
6HR MIN TEMP:  55; 6HR MAX TEMP:  74;

WASKISH        CLEAR     66  57  72 W8        29.95S
CROOKSTON      CLEAR     55  52  88 CALM      29.98F
STEPHEN NDAWN    N/A     61  55  82 W6          N/A
GREENBUSH NDAW   N/A     55  54  94 W2          N/A
$$
  *****  WEATHER ACROSS CENTRAL AND WEST MINNESOTA  *****

CITY           SKY/WX    TMP DP  RH WIND       PRES   REMARKS
FOSSTON        CLEAR     52  48  87 CALM      30.00S
BEMIDJI        CLEAR     57  51  80 CALM      29.99S
PARK RAPIDS    CLEAR     58  52  80 CALM      30.01S
6HR MIN TEMP:  58; 6HR MAX TEMP:  77;

ELBOW LAKE     FAIR      63  61  93 CALM      30.01S
WADENA         PTCLDY    59  55  88 CALM      30.01S
DETROIT LAKES  CLEAR     64  54  68 CALM      30.02F
MOORHEAD       CLEAR     61  55  82 CALM      30.01S
FERGUS FALLS   CLEAR     63  55  77 CALM      30.01S
MORRIS MN      CLEAR     63  61  94 NE6       30.00S
STAPLES        PTCLDY    61  55  82 CALM      30.01S
$$
  *****  WEATHER ELSEWHERE ACROSS MINNESOTA  *****

CITY           SKY/WX    TMP DP  RH WIND       PRES   REMARKS
DULUTH         CLEAR     59  49  69 W8        29.95S
6HR MIN TEMP:  58; 6HR MAX TEMP:  76;

INTRNTL FALLS  CLEAR     55  51  86 CALM      29.92S
6HR MIN TEMP:  54; 6HR MAX TEMP:  73;

ELY            PTCLDY    55  54  94 CALM      29.93S
CLOQUET        CLEAR     59  48  67 W6        29.97S
WHEATON        CLEAR     63  57  82 NE3       30.02S
BRAINERD       CLEAR     57  54  89 CALM      30.01S
6HR MIN TEMP:  56; 6HR MAX TEMP:  78;

HIBBING        CLEAR     62  47  57 W6        29.95S
6HR MIN TEMP:  61; 6HR MAX TEMP:  74;

ALEXANDRIA     PTCLDY    66  61  84 W3        30.03S
6HR MIN TEMP:  65; 6HR MAX TEMP:  78;

SAINT CLOUD    MOCLDY    64  59  83 SW3       30.00S
6HR MIN TEMP:  63; 6HR MAX TEMP:  79;

MINNEAPOLIS    PTCLDY    72  58  61 SW5       30.00S
6HR MIN TEMP:  70; 6HR MAX TEMP:  80;

$$

  *****  WEATHER ACROSS SOUTH DAKOTA  *****

CITY           SKY/WX    TMP DP  RH WIND       PRES   REMARKS
SIOUX FALLS    CLEAR     71  63  75 SW3       30.06F
6HR MIN TEMP:  71; 6HR MAX TEMP:  84;

BROOKINGS      CLEAR     66  57  72 SW7       30.07S
WATERTOWN      CLEAR     65  57  75 W8        30.04S
6HR MIN TEMP:  65; 6HR MAX TEMP:  81;

HURON          CLEAR     69  60  73 SW8       30.03F
6HR MIN TEMP:  69; 6HR MAX TEMP:  87;

SISSETON         N/A     62  59  90 N6        29.99S
ABERDEEN       CLEAR     63  57  81 CALM      30.02F
6HR MIN TEMP:  61; 6HR MAX TEMP:  88;

MITCHELL       CLEAR     71  65  81 S8        30.06F
PIERRE         CLEAR     72  57  59 S12       30.04F
6HR MIN TEMP:  66; 6HR MAX TEMP:  90;

MOBRIDGE       CLEAR     70  54  56 E7        30.01F
RAPID CITY     CLEAR     68  54  60 SW5       30.12F
6HR MIN TEMP:  61; 6HR MAX TEMP:  86;

$$

  *****  SOME WEATHER IN NEARBY STATES *****

CITY           SKY/WX    TMP DP  RH WIND       PRES   REMARKS
GLASGOW MT     CLEAR     68  47  46 NE8       29.99S
6HR MIN TEMP:  66; 6HR MAX TEMP:  93;

GREAT FALLS MT CLEAR     62  40  44 S12       30.05F
6HR MIN TEMP:  61; 6HR MAX TEMP:  92;

CHEYENNE WY    CLEAR     65  49  56 SE9       30.28F
6HR MIN TEMP:  65; 6HR MAX TEMP:  80;

SCOTTSBLUFF NE CLEAR     66  57  72 E8        30.15F
6HR MIN TEMP:  66; 6HR MAX TEMP:  89;

OMAHA NE       PTCLDY    74  70  87 SE7       30.08R
6HR MIN TEMP:  71; 6HR MAX TEMP:  87;

DES MOINES IA  MOCLDY    74  64  71 CALM      30.07S
6HR MIN TEMP:  74; 6HR MAX TEMP:  86;

DAVENPORT IA   CLEAR     62  58  86 NW3       30.05S
6HR MIN TEMP:  61; 6HR MAX TEMP:  79;

CHICAGO IL     CLEAR     69  52  54 W8        29.99R
6HR MIN TEMP:  69; 6HR MAX TEMP:  82;

EAU CLAIRE WI  PTCLDY    60  53  77 SW3       29.98S
6HR MIN TEMP:  59; 6HR MAX TEMP:  78;

LA CROSSE WI   CLEAR     65  58  78 S3        30.00S
6HR MIN TEMP:  64; 6HR MAX TEMP:  80;

$$

  *****  SOME NATIONAL WEATHER *****

CITY           SKY/WX    TMP DP  RH WIND       PRES   REMARKS
LA GUARDIA NY  CLEAR     81  58  45 SW7       29.80F
6HR MIN TEMP:  81; 6HR MAX TEMP:  86;

RALEIGH NC     PTCLDY    70  65  84 CALM      29.94F
6HR MIN TEMP:  69; 6HR MAX TEMP:  84;

ATLANTA GA     PTCLDY    77  62  59 N6        29.96F
6HR MIN TEMP:  76; 6HR MAX TEMP:  81; 6HR PCP: TRACE;

NEW ORLEANS LA PTCLDY    85  63  47 NE12      29.93S
6HR MIN TEMP:  85; 6HR MAX TEMP:  91;

OKLAHOMA CITY  MOCLDY    74  72  93 N5        30.11R
6HR MIN TEMP:  73; 6HR MAX TEMP:  76; 6HR PCP:  0.01;

ALBUQUERQUE NM CLOUDY    71  59  65 S9        30.31S
6HR MIN TEMP:  70; 6HR MAX TEMP:  82; 6HR PCP: TRACE;

SALT LAKE CITY PTCLDY    73  34  23 S6        30.12R
6HR MIN TEMP:  73; 6HR MAX TEMP:  94;

LOS ANGELES CA MOCLDY    67  65  93 SW9       29.97F


USA.gov is the U.S. government's official web portal to all federal, state and local government web resources and services.